Regional Weather Roundup
Issued by NWS Charleston, SC

Home | Current Version | Previous Version | Text Only | Print | Product List | Glossary On
Versions: 1 2 3 4 5 6 7 8 9 10 11 12 13 14 15 16 17 18 19 20 21 22 23 24 25 26 27 28 29 30 31 32 33 34 35 36 37 38 39 40 41 42 43 44 45 46 47 48 49 50
000
ASUS42 KCHS 112213
RWRCHS

REGIONAL WEATHER ROUNDUP
NATIONAL WEATHER SERVICE CHARLESTON SC
500 PM EST THU FEB 11 2016

NOTE: "FAIR" INDICATES FEW OR NO CLOUDS BELOW 12,000 FEET WITH NO
SIGNIFICANT WEATHER AND/OR OBSTRUCTIONS TO VISIBILITY.

NOT ALL STATIONS ARE QUALITY CONTROLLED BY THE NATIONAL
WEATHER SERVICE. USE DATA WITH CAUTION...ESPECIALLY
DEWPOINT OBSERVATIONS.

SCZ027-030-031-034>040-042>050-112300-
...SOUTHEAST SOUTH CAROLINA...

CITY           SKY/WX    TMP DP  RH WIND       PRES   REMARKS
N CHARLESTON   MOSUNNY   51  27  39 S12       30.17R
WATERFRONT PRK   N/A     48  32  53 S7        30.03R
MOUNT PLEASANT FAIR      48  30  49 S9        30.19R
JOHNS ISLAND   FAIR      50  30  46 S9        30.19R
PINOPOLIS        N/A     52  28  40 NE6       30.10R
MONCKS CORNER  FAIR      48  19  32 NE5       30.17R
SUMMERVILLE    FAIR      55  28  35 CALM      30.17R
BEAUFORT MCAS  SUNNY     52  33  48 SE9       30.17R
BEAUFORT ARPT  FAIR      52  30  43 CALM      30.17R HAZE
HILTON HEAD IS SUNNY     50  36  57 SE9       30.18R
WALTERBORO     CLEAR     57  25  28 SW6       30.16S
ALLENDALE      FAIR      55  25  30 CALM      30.14S

...SOUTHERN MIDLANDS AND PEE DEE...

CITY           SKY/WX    TMP DP  RH WIND       PRES   REMARKS
GEORGETOWN     FAIR      50  23  34 W9        30.19R
KINGSTREE      FAIR      50  23  34 CALM      30.17R
ORANGEBURG     SUNNY     54  22  28 W6        30.14S
BARNWELL       FAIR      55  27  33 CALM      30.15R
AIKEN          FAIR      52  23  32 W5        30.16S
MANNING        FAIR      50  21  32 CALM      30.16S
COLUMBIA       SUNNY     55  21  26 CALM      30.14R
SUMTER         SUNNY     51  22  31 NW6       30.13R
FLORENCE       SUNNY     47  22  37 W7        30.17R
MYRTLE BEACH   SUNNY     46  25  42 S12       30.21R
N MYRTLE BEACH CLEAR     46  28  49 S12       30.18R

$$

GAZ063-065-086>088-099>101-113>116-118-119-134>141-150-112300-
...SOUTHEAST GEORGIA...

CITY           SKY/WX    TMP DP  RH WIND       PRES   REMARKS
SAVANNAH ARPT  SUNNY     56  31  38 SE9       30.15R
HUNTER AAF     SUNNY     54  36  50 SE10      30.13R
FORT STEWART   SUNNY     65  37  35 SW5       30.10S
STATESBORO     SUNNY     65  23  20 W5        30.13R
SYLVANIA       CLEAR     60  35  38 CALM      30.14S
CLAXTON        FAIR      64  41  42 SW8       30.12R

...CSRA...CENTRAL AND FAR SOUTHEAST GEORGIA...

CITY           SKY/WX    TMP DP  RH WIND       PRES   REMARKS
THOMSON        SUNNY     57  30  35 CALM      30.18R
AUGUSTA-BUSH   MOSUNNY   56  22  26 NE3       30.14R HAZE
AUGUSTA-DANIEL SUNNY     56  23  27 S7        30.14R
SWAINSBORO     FAIR      61  32  33 NW7       30.14R
VIDALIA        SUNNY     64  37  36 SW5       30.12R
EASTMAN        FAIR      65  38  36 CALM      30.14R
HAZLEHURST     FAIR      66  41  39 SW8       30.11R
ALMA           SUNNY     66  40  38 SW9       30.12R
WAYCROSS       SUNNY     71  44  37 W8G16     30.12S
JESUP          FAIR      70  41  35 W7        30.13R
BAXLEY         FAIR      66  39  37 SW8       30.12R
BRUNSWICK      SUNNY     59  46  63 SE8       30.14S
SAINT SIMONS   SUNNY     55  46  71 S13       30.14S

$$

SCZ027-028-034-036>038-045-046-048>050-GAZ119-141-112300-
...LAKE AND SUPPLEMENTAL COASTAL OBSERVATIONS...

STATION/POSITION TIME  TEMP    WIND        PRES    WAVE   SWELL
                       AIR SEA DIR/SP/G            HT/PER HT/PER/DIR
                 (UTC) (F)     (DEG/KT/KT) (MB)    (FT/S) (FT/S/D)
WINYAH BAY       NOT AVBL
LAKE MURRAY      2100   52     270/  3/  4 1019.6S
ACE BASIN NERRS  NOT AVBL
FORT PULASKI     2100   52 50  150/  6/  9 1021.2F
SAPELO ISLAND    2100   56     150/ 15     1020.0F

$$

ANZ835-935-AMZ111-154-330-350-352-354-370-450-454-472-112300-
...C-MAN AND BUOY OBSERVATIONS...

STATION/POSITION TIME  TEMP    WIND        PRES    WAVE   SWELL
                       AIR SEA DIR/SP/G            HT/PER HT/PER/DIR
                 (UTC) (F)     (DEG/KT/KT) (MB)    (FT/S) (FT/S/D)
BUOY 41004       2150   49 63  250/  4/  6 1022.5R   3/ 6   3/ 6
BUOY 41008       2150   54 53  160/ 16/ 17 1021.2F   2/ 3
FOLLY BEACH CMAN 2200   48     190/ 10/ 11 1022.4R
CAPERS NEARSHORE 2108   47     190/ 10/ 14 1021.6R
FRIPP NEARSHORE  2100   50     180/  6/  8 1021.3R


STATION/POSITION TIME  TEMP    WIND        PRES    WAVE   SWELL
                       AIR SEA DIR/SP/G            HT/PER HT/PER/DIR
                 (UTC) (F)     (DEG/KT/KT) (MB)    (FT/S) (FT/S/D)
5E ST. MARYS GA  2121      56                N/A     2/ 3   2/ 80/14
FRYING PAN BUOY  2100   43 57  280/  8/ 14 1022.1F
BUOY 41025       2150   39 57  290/ 17/ 21 1022.2R   5/ 4   2/170/ 8
CAPE LOOKOUT NC  NOT AVBL
BUOY 41002       2150   54 68  300/ 21/ 25   N/A    10/ 9   5/270/ 9
BUOY 41010       2120   61 72              1024.6R
ST AUGUSTINE FL  2200   56 58  150/ 16/ 18 1023.3R


$$



USA.gov is the U.S. government's official web portal to all federal, state and local government web resources and services.